Showing default

COSMOS 663, 7349

Orbit data source: Space-Track

COSMOS 663, 7349 is a payload satellite owned by VMF (CIS) in LEO that was launched on Thu, 27 Jun 1974 UTC via a KOSMOS 11K65M launch vehicle from the Plesetsk Missile And Space Complex (PKMTR). Payload-class satellites include a variety of spacecraft equipped with specific instruments for various scientific and technological missions. These include communications satellites like Starlink; space stations such as the ISS; scientific satellites like the Hubble; Earth observation satellites from companies like Planet Labs, Umbra, and HawkEye 360; GPS; miniature CubeSats for education and research; and military/defense satellites.

Loading next visibility...
Identifier
7349, 1974-048A
Orbit
LEO
Country
Flag of CISCIS
Related business
Manufacturer
Omsk Av. Zav.
Mission
Spacecraft
Bus & Motor
KAUR-1 11F617, Unknown motor
Mass
800 kg wet, 800 kg dry
Launch date (UTC)
1974-06-27 (52 years ago)
Launch vehicle
KOSMOS 11K65M
Launch site
Plesetsk Missile And Space Complex (PKMTR)
Object type
Payload
Rocket body
Debris
Shape & HBR
Unknown
Radar Cross Section
Large (>1 m²)

Expand to show TLE details & history
Last TLE update: 2 days ago

TLE from 2 days ago
0 COSMOS 663
1  7349U 74048A   26171.40542830  .00000063  00000-0  49720-4 0  9994
2  7349  82.9495 172.2920 0023716 240.2848 232.7847 13.75860208608650
Epoch: 2026-06-20T09:43Z
TLE epoch observation values (Epoch: 2026-06-20T09:43:49.005Z)
Latitude
66.2224°
Longitude
-78.49883°
Altitude
1,000.637 km
Speed
7.352 km/s
True Right ascension
22h 24m 18s
True Declination
66° 05' 58"
Sunlit
Object was in daylight at epoch
Visualization orbit readout
Latitude
Unknown
Longitude
Unknown
Altitude
Unknown
Speed
Unknown
Apparent Right ascension
Unknown
Apparent Declination
Unknown
Sunlit
N/A
Visualization observer readout
Local Sidereal Time
23:07:47
Azimuth
Unknown
Elevation
Unknown
Doppler factor
Unknown
Orbital elements
Apogee altitude
993.195 km
Perigee altitude
958.314 km
Semi-major axis
7,353.891 km
Eccentricity
0.00237
Inclination
82.9495°
RAAN
172.292°
Arg. of periapsis
240.2848°
True anomaly
232.56866°
Mean anomaly
232.7847°
Eccentric anomaly
232.67664°
Mean motion
3.44166 °/min
Orbital period
104.6 mins
BSTAR
0.00004972
Loading maneuver chart data...
Computing Atmospheric mass density...
Loading historical data...
Loading historical data...
Loading historical data...
Loading historical data...
Loading historical data...
Loading historical data...
Loading historical data...
Other satellites on launch #48 in the year 1974 (1974-06-27 UTC)

Documentation

Showing up to 5 results
|